Home > Weather > Samford > Past weeks

Flag for Australia Past Weather in Samford, Queensland, Australia — Yesterday and Last 2 Weeks

Now
70 °F

Passing clouds.


Feels Like: 70 °F
Forecast: 55 / 71 °F
Wind: 10 mph from East

Location: Brisbane Airport M. O

Current Time: Aug 30, 2016 at 11:37:44 AM

Latest Report: Aug 30, 2016 at 11:00 AM


Visibility: N/A

Pressure: 30.36 "Hg

Humidity: 53%

Dew Point: 52 °F

Location of SamfordLocation

Past Weather in Samford — Graph

°F

Samford Temperature Yesterday

Maximum temperature yesterday: 72 °F (at 11:30 AM)
Minimum temperature yesterday: 52 °F (at 5:00 AM)
Average temperature yesterday: 62 °F

High & Low Weather Summary for the Past Weeks

 TemperatureHumidityPressure
High77 °F (Aug 23, 11:30 AM)100% (Aug 20, 6:00 AM)30.42 "Hg (Aug 20, 6:00 AM)
Low45 °F (Aug 21, 6:00 AM)21% (Aug 27, 2:00 PM)29.71 "Hg (Aug 24, 11:00 AM)
Average62 °F70%30.10 "Hg
* Reported Aug 15 10:00 AM — Aug 30 10:00 AM, Samford, Weather by CustomWeather, © 2016

Note: Actual official high and low records may vary slightly from our data, if they occured in-between our weather recording intervals... More about our weather records

Advertising

Samford Weather History for the Previous 24 Hours

Scroll right to see more
 ConditionsComfort  
Time TempWeatherWind HumidityBarometerVisibility
10:00 AM
Tue, Aug 30
70 °FPassing clouds.9 mph57%30.39 "HgN/A
9:00 AM66 °FBroken clouds.6 mph68%30.39 "HgN/A
8:30 AM66 °FPartly sunny.5 mph68%30.36 "HgN/A
8:00 AM64 °FPassing clouds.6 mph73%30.36 "HgN/A
7:30 AM61 °FPassing clouds.7 mph83%30.36 "HgN/A
7:00 AM59 °FScattered clouds.8 mph88%30.33 "HgN/A
6:30 AM59 °FScattered clouds.7 mph82%30.33 "HgN/A
6:00 AM59 °FScattered clouds.7 mph88%30.30 "HgN/A
5:30 AM59 °FScattered clouds.6 mph88%30.30 "HgN/A
5:00 AM59 °FPassing clouds.6 mph88%30.27 "HgN/A
4:30 AM57 °FPassing clouds.6 mph94%30.27 "HgN/A
4:00 AM57 °FPassing clouds.6 mph94%30.27 "HgN/A
3:30 AM57 °FPassing clouds.6 mph88%30.27 "HgN/A
3:00 AM57 °FPassing clouds.6 mph88%30.27 "HgN/A
2:30 AM57 °FPassing clouds.6 mph88%30.27 "HgN/A
2:00 AM57 °FPassing clouds.6 mph88%30.27 "HgN/A
1:00 AM55 °FPassing clouds.5 mph94%30.27 "HgN/A
12:30 AM55 °FPassing clouds.3 mph94%30.30 "HgN/A
12:00 AM57 °FPassing clouds.No wind88%30.30 "HgN/A
11:00 PM
Mon, Aug 29
59 °FClear.No wind88%30.30 "Hg10 mi
10:30 PM59 °FClear.No wind88%30.30 "Hg10 mi
10:00 PM61 °FPassing clouds.No wind83%30.30 "HgN/A
9:30 PM61 °FClear.No wind88%30.30 "Hg10 mi
9:00 PM61 °FClear.No wind83%30.30 "Hg10 mi
8:00 PM63 °FClear.7 mph77%30.30 "Hg10 mi
7:30 PM61 °FClear.6 mph83%30.30 "Hg10 mi
7:00 PM64 °FClear.8 mph73%30.30 "Hg10 mi
6:00 PM66 °FPassing clouds.9 mph68%30.27 "HgN/A
5:30 PM64 °FPassing clouds.6 mph73%30.27 "HgN/A
5:00 PM66 °FPassing clouds.8 mph68%30.27 "HgN/A
4:00 PM70 °FPassing clouds.12 mph60%30.24 "HgN/A
3:30 PM70 °FPassing clouds.12 mph60%30.24 "HgN/A
3:00 PM70 °FPassing clouds.13 mph57%30.24 "HgN/A
2:30 PM70 °FPassing clouds.13 mph57%30.24 "HgN/A
2:00 PM72 °FPassing clouds.12 mph50%30.24 "HgN/A
1:30 PM72 °FPassing clouds.12 mph47%30.24 "HgN/A
1:00 PM72 °FPassing clouds.13 mph50%30.24 "HgN/A
12:30 PM72 °FPassing clouds.12 mph53%30.24 "HgN/A
12:00 PM72 °FPassing clouds.10 mph50%30.27 "HgN/A
11:30 AM72 °FPassing clouds.9 mph53%30.27 "HgN/A
11:00 AM70 °FPassing clouds.8 mph53%30.27 "HgN/A
Weather by CustomWeather, © 2016

See weather overviewHow to use our weather pages